Weather History for Ann Arbor, MI

Change the Weather History Date:

Sunday, February 10, 2013

  Actual Average Record
Temperature  
Mean Temperature 30 °F -  
Max Temperature 41 °F 30 °F 57 °F (2009)
Min Temperature 19 °F 15 °F -13 °F (2011)
Degree Days  
Heating Degree Days 35    
Moisture  
Dew Point 26 °F    
Average Humidity 80    
Maximum Humidity 96    
Minimum Humidity 60    
Precipitation  
Precipitation 0.11 in - - ()
Sea Level Pressure  
Sea Level Pressure 30.02 in    
Wind  
Wind Speed 5 mph (SE)    
Max Wind Speed 10 mph    
Max Gust Speed -    
Visibility 9 miles    
Events Rain    
Averages and records for this station are not official NWS values.
T = Trace of Precipitation, MM = Missing Value Source: NWS Daily Summary

Daily Weather History Graph

Daily Weather History Graph

Search for Another Location

Airport:

Trip Planner

Search our weather history database for the weather conditions in past years. The results will help you decide how hot, cold, wet, or windy it might be!

Date:

Astronomy

Feb. 10, 2013 Rise Set
Actual Time 7:37 AM EST 6:01 PM EST
Civil Twilight 7:08 AM EST 6:30 PM EST
Nautical Twilight 6:35 AM EST 7:03 PM EST
Astronomical Twilight 6:02 AM EST 7:36 PM EST
Moon 7:25 AM EST (2/10) 6:53 PM EST (2/10)
Length of Visible Light 11h 22m
Length of Day
10h 23m
New Moon, 0% of the Moon is Illuminated
Feb 10
New Moon
Feb 17
First Quarter
Feb 25
Full
Mar 4
Last Quarter
Mar 11
New

Hourly Weather History & Observations

Time (EST) Temp. Windchill Dew Point Humidity Pressure Visibility Wind Dir Wind Speed Gust Speed Precip Events Conditions
12:53 AM 21.0 °F 13.4 °F 19.9 °F 96% 30.28 in 9.0 mi ESE 5.8 mph - N/A   Clear
1:53 AM 21.0 °F 16.2 °F 19.0 °F 92% 30.26 in 9.0 mi SE 3.5 mph - N/A   Clear
2:53 AM 19.9 °F 14.9 °F 18.0 °F 92% 30.25 in 8.0 mi East 3.5 mph - N/A   Clear
3:53 AM 21.9 °F 15.7 °F 19.9 °F 92% 30.22 in 9.0 mi ESE 4.6 mph - N/A   Clear
4:53 AM 21.9 °F 17.2 °F 19.0 °F 89% 30.22 in 9.0 mi ESE 3.5 mph - N/A   Clear
5:53 AM 23.0 °F 18.4 °F 19.0 °F 85% 30.23 in 9.0 mi ESE 3.5 mph - N/A   Clear
6:53 AM 21.9 °F - 19.0 °F 89% 30.23 in 9.0 mi Calm Calm - N/A   Clear
8:53 AM 25.0 °F 20.7 °F 21.0 °F 85% 30.17 in 7.0 mi East 3.5 mph - N/A   Overcast
9:53 AM 28.0 °F 22.8 °F 23.0 °F 81% 30.16 in 8.0 mi ESE 4.6 mph - N/A   Overcast
10:53 AM 30.0 °F 25.2 °F 24.1 °F 79% 30.15 in 9.0 mi ESE 4.6 mph - N/A   Overcast
11:53 AM 35.1 °F 30.1 °F 24.1 °F 64% 30.12 in 10.0 mi SE 5.8 mph - N/A   Overcast
12:53 PM 37.0 °F 32.4 °F 25.0 °F 62% 30.04 in 10.0 mi ESE 5.8 mph - N/A   Mostly Cloudy
1:53 PM 39.0 °F 34.8 °F 26.1 °F 60% 30.02 in 10.0 mi SE 5.8 mph - N/A   Mostly Cloudy
2:53 PM 37.9 °F 32.7 °F 27.0 °F 65% 29.98 in 10.0 mi ESE 6.9 mph - N/A   Overcast
3:53 PM 37.0 °F 31.0 °F 27.0 °F 67% 29.96 in 10.0 mi ESE 8.1 mph - N/A   Overcast
4:53 PM 37.0 °F 31.0 °F 27.0 °F 67% 29.92 in 10.0 mi ESE 8.1 mph - N/A   Overcast
5:53 PM 37.9 °F 32.7 °F 28.0 °F 68% 29.89 in 10.0 mi SE 6.9 mph - N/A   Overcast
6:53 PM 37.0 °F 29.8 °F 32.0 °F 82% 29.86 in 8.0 mi SE 10.4 mph - 0.05 in Rain Light Rain
7:53 PM 37.0 °F 31.0 °F 30.9 °F 79% 29.84 in 10.0 mi SE 8.1 mph - 0.00 in   Overcast
8:53 PM 37.0 °F 31.6 °F 33.1 °F 86% 29.78 in 9.0 mi SE 6.9 mph - 0.01 in Rain Light Rain
9:53 PM 39.0 °F 34.0 °F 33.1 °F 79% 29.76 in 7.0 mi South 6.9 mph - 0.02 in Rain Light Rain
10:53 PM 37.9 °F 34.4 °F 35.1 °F 89% 29.73 in 9.0 mi South 4.6 mph - 0.03 in   Overcast
11:46 PM 41.0 °F 35.8 °F 37.4 °F 87% 29.68 in 10.0 mi South 8.1 mph - N/A   Overcast
11:53 PM 41.0 °F 35.2 °F 37.0 °F 86% 29.70 in 10.0 mi SSW 9.2 mph - N/A   Overcast